owner,sensor,date,latitude,longitude,vertical_datum,mass_concentration_of_oxygen_in_sea_water,qcFlag 
DISL,ioos:station:DISL:MHPA:1,2010-01-01T06:30:00Z,30.6671,-87.9365,5.141,10.05,1111122 
DISL,ioos:station:DISL:MHPA:1,2010-01-01T07:00:00Z,30.6671,-87.9365,5.002,10.08,1111122 
DISL,ioos:station:DISL:MHPA:1,2010-01-01T07:30:00Z,30.6671,-87.9365,4.844,10.04,1111122 
DISL,ioos:station:DISL:MHPA:1,2010-01-01T08:00:00Z,30.6671,-87.9365,4.681,9.93,1111122 
DISL,ioos:station:DISL:MHPA:1,2010-01-01T08:30:00Z,30.6671,-87.9365,4.512,9.97,1111122 
DISL,ioos:station:DISL:MHPA:1,2010-01-01T09:00:00Z,30.6671,-87.9365,4.337,9.96,1111122 
DISL,ioos:station:DISL:MHPA:1,2010-01-01T09:30:00Z,30.6671,-87.9365,4.161,9.91,1111122 
DISL,ioos:station:DISL:MHPA:1,2010-01-01T10:00:00Z,30.6671,-87.9365,4.0,9.81,1111122 
DISL,ioos:station:DISL:MHPA:1,2010-01-01T10:30:00Z,30.6671,-87.9365,3.843,9.81,1111122 
DISL,ioos:station:DISL:MHPA:1,2010-01-01T11:00:00Z,30.6671,-87.9365,3.667,9.76,1111122 
DISL,ioos:station:DISL:MHPA:1,2010-01-01T11:30:00Z,30.6671,-87.9365,3.548,9.76,1111122 
DISL,ioos:station:DISL:MHPA:1,2010-01-01T12:00:00Z,30.6671,-87.9365,3.456,9.77,1111122 
DISL,ioos:station:DISL:MHPA:1,2010-01-01T12:30:00Z,30.6671,-87.9365,3.396,9.78,1111122 
DISL,ioos:station:DISL:MHPA:1,2010-01-01T13:00:00Z,30.6671,-87.9365,3.339,9.92,1111122 
DISL,ioos:station:DISL:MHPA:1,2010-01-01T13:30:00Z,30.6671,-87.9365,3.208,9.97,1111122 
DISL,ioos:station:DISL:MHPA:1,2010-01-01T14:00:00Z,30.6671,-87.9365,3.063,9.95,1111122 
DISL,ioos:station:DISL:MHPA:1,2010-01-01T14:30:00Z,30.6671,-87.9365,2.916,9.97,1111122 
DISL,ioos:station:DISL:MHPA:1,2010-01-01T15:00:00Z,30.6671,-87.9365,2.772,9.92,1111122 
DISL,ioos:station:DISL:MHPA:1,2010-01-01T15:30:00Z,30.6671,-87.9365,2.643,9.98,1111122 
DISL,ioos:station:DISL:MHPA:1,2010-01-01T16:00:00Z,30.6671,-87.9365,2.544,10.06,1111122 
DISL,ioos:station:DISL:MHPA:1,2010-01-01T16:30:00Z,30.6671,-87.9365,2.441,10.06,1111122 
DISL,ioos:station:DISL:MHPA:1,2010-01-01T17:00:00Z,30.6671,-87.9365,2.337,10.18,1111122 
DISL,ioos:station:DISL:MHPA:1,2010-01-01T17:30:00Z,30.6671,-87.9365,2.263,10.16,1111122 
DISL,ioos:station:DISL:MHPA:1,2010-01-01T18:00:00Z,30.6671,-87.9365,2.213,10.28,1111122 
DISL,ioos:station:DISL:MHPA:1,2010-01-01T18:30:00Z,30.6671,-87.9365,2.208,10.28,1111122 
DISL,ioos:station:DISL:MHPA:1,2010-01-01T19:00:00Z,30.6671,-87.9365,2.184,10.3,1111122 
DISL,ioos:station:DISL:MHPA:1,2010-01-01T19:30:00Z,30.6671,-87.9365,2.162,10.31,1111122 
DISL,ioos:station:DISL:MHPA:1,2010-01-01T20:00:00Z,30.6671,-87.9365,2.191,10.33,1111122 
DISL,ioos:station:DISL:MHPA:1,2010-01-01T20:30:00Z,30.6671,-87.9365,2.243,10.29,1111122 
DISL,ioos:station:DISL:MHPA:1,2010-01-01T21:00:00Z,30.6671,-87.9365,2.356,10.38,1111122 
DISL,ioos:station:DISL:MHPA:1,2010-01-01T21:30:00Z,30.6671,-87.9365,2.434,10.34,1111122 
DISL,ioos:station:DISL:MHPA:1,2010-01-01T22:00:00Z,30.6671,-87.9365,2.473,10.35,1111122 
DISL,ioos:station:DISL:MHPA:1,2010-01-01T22:30:00Z,30.6671,-87.9365,2.545,10.19,1111122 
DISL,ioos:station:DISL:MHPA:1,2010-01-01T23:00:00Z,30.6671,-87.9365,2.671,10.42,1111122 
DISL,ioos:station:DISL:MHPA:1,2010-01-01T23:30:00Z,30.6671,-87.9365,2.924,10.42,1111122 
DISL,ioos:station:DISL:MHPA:1,2010-01-02T00:00:00Z,30.6671,-87.9365,3.095,10.34,1111122 
DISL,ioos:station:DISL:MHPA:1,2010-01-02T00:30:00Z,30.6671,-87.9365,3.139,10.32,1111122 
DISL,ioos:station:DISL:MHPA:1,2010-01-02T01:00:00Z,30.6671,-87.9365,3.273,10.47,1111122 
DISL,ioos:station:DISL:MHPA:1,2010-01-02T01:30:00Z,30.6671,-87.9365,3.405,10.45,1111122 
DISL,ioos:station:DISL:MHPA:1,2010-01-02T02:00:00Z,30.6671,-87.9365,3.43,10.28,1111122 
DISL,ioos:station:DISL:MHPA:1,2010-01-02T02:30:00Z,30.6671,-87.9365,3.544,10.22,1111122 
DISL,ioos:station:DISL:MHPA:1,2010-01-02T03:00:00Z,30.6671,-87.9365,3.587,10.07,1111122 
DISL,ioos:station:DISL:MHPA:1,2010-01-02T03:30:00Z,30.6671,-87.9365,3.694,9.99,1111122 
DISL,ioos:station:DISL:MHPA:1,2010-01-02T04:00:00Z,30.6671,-87.9365,3.781,9.91,1111122 
DISL,ioos:station:DISL:MHPA:1,2010-01-02T04:30:00Z,30.6671,-87.9365,3.924,9.95,1111122 
DISL,ioos:station:DISL:MHPA:1,2010-01-02T05:00:00Z,30.6671,-87.9365,4.033,9.82,1111122 
DISL,ioos:station:DISL:MHPA:1,2010-01-02T05:30:00Z,30.6671,-87.9365,4.073,10.06,1111122 
DISL,ioos:station:DISL:MHPA:1,2010-01-02T06:00:00Z,30.6671,-87.9365,4.079,10.06,1111122 
DISL,ioos:station:DISL:MHPA:1,2010-01-02T06:30:00Z,30.6671,-87.9365,4.029,10.09,1111122 
DISL,ioos:station:DISL:MHPA:1,2010-01-02T07:00:00Z,30.6671,-87.9365,3.969,10.18,1111122 
DISL,ioos:station:DISL:MHPA:1,2010-01-02T07:30:00Z,30.6671,-87.9365,3.87,10.17,1111122 
DISL,ioos:station:DISL:MHPA:1,2010-01-02T08:00:00Z,30.6671,-87.9365,3.75,10.15,1111122 
DISL,ioos:station:DISL:MHPA:1,2010-01-02T08:30:00Z,30.6671,-87.9365,3.648,10.14,1111122 
DISL,ioos:station:DISL:MHPA:1,2010-01-02T09:00:00Z,30.6671,-87.9365,3.578,10.19,1111122 
DISL,ioos:station:DISL:MHPA:1,2010-01-02T09:30:00Z,30.6671,-87.9365,3.492,10.17,1111122 
DISL,ioos:station:DISL:MHPA:1,2010-01-02T10:00:00Z,30.6671,-87.9365,3.392,10.07,1111122 
DISL,ioos:station:DISL:MHPA:1,2010-01-02T10:30:00Z,30.6671,-87.9365,3.29,10.1,1111122 
DISL,ioos:station:DISL:MHPA:1,2010-01-02T11:00:00Z,30.6671,-87.9365,3.198,10.04,1111122 
DISL,ioos:station:DISL:MHPA:1,2010-01-02T11:30:00Z,30.6671,-87.9365,3.106,10.0,1111122 
DISL,ioos:station:DISL:MHPA:1,2010-01-02T12:00:00Z,30.6671,-87.9365,2.998,10.01,1111122 
DISL,ioos:station:DISL:MHPA:1,2010-01-02T12:30:00Z,30.6671,-87.9365,2.908,9.76,1111122 
DISL,ioos:station:DISL:MHPA:1,2010-01-02T13:00:00Z,30.6671,-87.9365,2.824,9.73,1111122 
DISL,ioos:station:DISL:MHPA:1,2010-01-02T13:30:00Z,30.6671,-87.9365,2.738,9.82,1111122 
DISL,ioos:station:DISL:MHPA:1,2010-01-02T14:00:00Z,30.6671,-87.9365,2.653,9.75,1111122 
DISL,ioos:station:DISL:MHPA:1,2010-01-02T14:30:00Z,30.6671,-87.9365,2.572,9.84,1111122 
DISL,ioos:station:DISL:MHPA:1,2010-01-02T15:00:00Z,30.6671,-87.9365,2.482,9.99,1111122 
DISL,ioos:station:DISL:MHPA:1,2010-01-02T15:30:00Z,30.6671,-87.9365,2.41,10.16,1111122 
DISL,ioos:station:DISL:MHPA:1,2010-01-02T16:00:00Z,30.6671,-87.9365,2.354,10.01,1111122 
DISL,ioos:station:DISL:MHPA:1,2010-01-02T16:30:00Z,30.6671,-87.9365,2.302,10.11,1111122 
DISL,ioos:station:DISL:MHPA:1,2010-01-02T17:00:00Z,30.6671,-87.9365,2.265,10.24,1111122 
DISL,ioos:station:DISL:MHPA:1,2010-01-02T17:30:00Z,30.6671,-87.9365,2.242,10.23,1111122 
DISL,ioos:station:DISL:MHPA:1,2010-01-02T18:00:00Z,30.6671,-87.9365,2.223,10.29,1111122 
DISL,ioos:station:DISL:MHPA:1,2010-01-02T18:30:00Z,30.6671,-87.9365,2.207,10.31,1111122 
DISL,ioos:station:DISL:MHPA:1,2010-01-02T19:00:00Z,30.6671,-87.9365,2.184,10.36,1111122 
DISL,ioos:station:DISL:MHPA:1,2010-01-02T19:30:00Z,30.6671,-87.9365,2.172,10.37,1111122 
DISL,ioos:station:DISL:MHPA:1,2010-01-02T20:00:00Z,30.6671,-87.9365,2.173,10.3,1111122 
DISL,ioos:station:DISL:MHPA:1,2010-01-02T20:30:00Z,30.6671,-87.9365,2.169,10.27,1111122 
DISL,ioos:station:DISL:MHPA:1,2010-01-02T21:00:00Z,30.6671,-87.9365,2.177,10.41,1111122 
DISL,ioos:station:DISL:MHPA:1,2010-01-02T21:30:00Z,30.6671,-87.9365,2.232,10.39,1111122 
DISL,ioos:station:DISL:MHPA:1,2010-01-02T22:00:00Z,30.6671,-87.9365,2.292,10.48,1111122 
DISL,ioos:station:DISL:MHPA:1,2010-01-02T22:30:00Z,30.6671,-87.9365,2.36,10.6,1111122 
DISL,ioos:station:DISL:MHPA:1,2010-01-02T23:00:00Z,30.6671,-87.9365,2.481,10.6,1111122 
DISL,ioos:station:DISL:MHPA:1,2010-01-02T23:30:00Z,30.6671,-87.9365,2.658,10.62,1111122 
DISL,ioos:station:DISL:MHPA:1,2010-01-03T00:00:00Z,30.6671,-87.9365,2.728,10.61,1111122 
DISL,ioos:station:DISL:MHPA:1,2010-01-03T00:30:00Z,30.6671,-87.9365,2.783,10.58,1111122 
DISL,ioos:station:DISL:MHPA:1,2010-01-03T01:00:00Z,30.6671,-87.9365,2.906,10.55,1111122 
DISL,ioos:station:DISL:MHPA:1,2010-01-03T01:30:00Z,30.6671,-87.9365,2.996,10.51,1111122 
DISL,ioos:station:DISL:MHPA:1,2010-01-03T02:00:00Z,30.6671,-87.9365,3.027,10.48,1111122 
DISL,ioos:station:DISL:MHPA:1,2010-01-03T02:30:00Z,30.6671,-87.9365,3.107,10.48,1111122 
DISL,ioos:station:DISL:MHPA:1,2010-01-03T03:00:00Z,30.6671,-87.9365,3.239,10.47,1111122 
DISL,ioos:station:DISL:MHPA:1,2010-01-03T03:30:00Z,30.6671,-87.9365,3.343,10.5,1111122 
DISL,ioos:station:DISL:MHPA:1,2010-01-03T04:00:00Z,30.6671,-87.9365,3.427,10.48,1111122 
DISL,ioos:station:DISL:MHPA:1,2010-01-03T04:30:00Z,30.6671,-87.9365,3.506,10.43,1111122 
DISL,ioos:station:DISL:MHPA:1,2010-01-03T05:00:00Z,30.6671,-87.9365,3.596,10.36,1111122 
DISL,ioos:station:DISL:MHPA:1,2010-01-03T05:30:00Z,30.6671,-87.9365,3.659,10.37,1111122 
DISL,ioos:station:DISL:MHPA:1,2010-01-03T06:00:00Z,30.6671,-87.9365,3.719,10.36,1111122 
DISL,ioos:station:DISL:MHPA:1,2010-01-03T06:30:00Z,30.6671,-87.9365,3.725,10.27,1111122 
DISL,ioos:station:DISL:MHPA:1,2010-01-03T07:00:00Z,30.6671,-87.9365,3.715,10.09,1111122 
DISL,ioos:station:DISL:MHPA:1,2010-01-03T07:30:00Z,30.6671,-87.9365,3.674,10.15,1111122 
DISL,ioos:station:DISL:MHPA:1,2010-01-03T08:00:00Z,30.6671,-87.9365,3.653,10.09,1111122 
DISL,ioos:station:DISL:MHPA:1,2010-01-03T08:30:00Z,30.6671,-87.9365,3.646,9.96,1111122 
DISL,ioos:station:DISL:MHPA:1,2010-01-03T09:00:00Z,30.6671,-87.9365,3.571,9.65,1111122 
DISL,ioos:station:DISL:MHPA:1,2010-01-03T09:30:00Z,30.6671,-87.9365,3.504,9.53,1111122 
DISL,ioos:station:DISL:MHPA:1,2010-01-03T10:00:00Z,30.6671,-87.9365,3.415,9.58,1111122 
DISL,ioos:station:DISL:MHPA:1,2010-01-03T10:30:00Z,30.6671,-87.9365,3.301,10.05,1111122 
DISL,ioos:station:DISL:MHPA:1,2010-01-03T11:00:00Z,30.6671,-87.9365,3.209,10.1,1111122 
DISL,ioos:station:DISL:MHPA:1,2010-01-03T11:30:00Z,30.6671,-87.9365,3.126,10.07,1111122 
DISL,ioos:station:DISL:MHPA:1,2010-01-03T12:00:00Z,30.6671,-87.9365,3.03,10.07,1111122 
DISL,ioos:station:DISL:MHPA:1,2010-01-03T12:30:00Z,30.6671,-87.9365,2.928,10.01,1111122 
DISL,ioos:station:DISL:MHPA:1,2010-01-03T13:00:00Z,30.6671,-87.9365,2.855,10.18,1111122 
DISL,ioos:station:DISL:MHPA:1,2010-01-03T13:30:00Z,30.6671,-87.9365,2.796,10.2,1111122 
DISL,ioos:station:DISL:MHPA:1,2010-01-03T14:00:00Z,30.6671,-87.9365,2.736,10.21,1111122 
DISL,ioos:station:DISL:MHPA:1,2010-01-03T14:30:00Z,30.6671,-87.9365,2.666,10.22,1111122 
DISL,ioos:station:DISL:MHPA:1,2010-01-03T15:00:00Z,30.6671,-87.9365,2.595,10.1,1111122 
DISL,ioos:station:DISL:MHPA:1,2010-01-03T15:30:00Z,30.6671,-87.9365,2.534,10.15,1111122 
DISL,ioos:station:DISL:MHPA:1,2010-01-03T16:00:00Z,30.6671,-87.9365,2.489,10.14,1111122 
DISL,ioos:station:DISL:MHPA:1,2010-01-03T16:30:00Z,30.6671,-87.9365,2.456,10.09,1111122 
DISL,ioos:station:DISL:MHPA:1,2010-01-03T17:00:00Z,30.6671,-87.9365,2.426,10.14,1111122 
DISL,ioos:station:DISL:MHPA:1,2010-01-03T17:30:00Z,30.6671,-87.9365,2.391,10.37,1111122 
DISL,ioos:station:DISL:MHPA:1,2010-01-03T18:00:00Z,30.6671,-87.9365,2.365,10.39,1111122 
DISL,ioos:station:DISL:MHPA:1,2010-01-03T18:30:00Z,30.6671,-87.9365,2.338,10.5,1111122 
DISL,ioos:station:DISL:MHPA:1,2010-01-03T19:00:00Z,30.6671,-87.9365,2.321,10.46,1111122 
DISL,ioos:station:DISL:MHPA:1,2010-01-03T19:30:00Z,30.6671,-87.9365,2.309,10.56,1111122 
DISL,ioos:station:DISL:MHPA:1,2010-01-03T20:00:00Z,30.6671,-87.9365,2.299,10.58,1111122 
DISL,ioos:station:DISL:MHPA:1,2010-01-03T20:30:00Z,30.6671,-87.9365,2.299,10.55,1111122 
DISL,ioos:station:DISL:MHPA:1,2010-01-03T21:00:00Z,30.6671,-87.9365,2.311,10.59,1111122 
DISL,ioos:station:DISL:MHPA:1,2010-01-03T21:30:00Z,30.6671,-87.9365,2.345,10.63,1111122 
DISL,ioos:station:DISL:MHPA:1,2010-01-03T22:00:00Z,30.6671,-87.9365,2.385,10.59,1111122 
DISL,ioos:station:DISL:MHPA:1,2010-01-03T22:30:00Z,30.6671,-87.9365,2.452,10.46,1111122 
DISL,ioos:station:DISL:MHPA:1,2010-01-03T23:00:00Z,30.6671,-87.9365,2.57,10.64,1111122 
DISL,ioos:station:DISL:MHPA:1,2010-01-03T23:30:00Z,30.6671,-87.9365,2.68,10.7,1111122 
DISL,ioos:station:DISL:MHPA:1,2010-01-04T00:00:00Z,30.6671,-87.9365,2.757,10.67,1111122 
DISL,ioos:station:DISL:MHPA:1,2010-01-04T00:30:00Z,30.6671,-87.9365,2.821,10.68,1111122 
DISL,ioos:station:DISL:MHPA:1,2010-01-04T01:00:00Z,30.6671,-87.9365,2.903,10.65,1111122 
DISL,ioos:station:DISL:MHPA:1,2010-01-04T01:30:00Z,30.6671,-87.9365,2.962,10.57,1111122 
DISL,ioos:station:DISL:MHPA:1,2010-01-04T02:00:00Z,30.6671,-87.9365,3.009,10.49,1111122 
DISL,ioos:station:DISL:MHPA:1,2010-01-04T02:30:00Z,30.6671,-87.9365,3.042,10.33,1111122 
DISL,ioos:station:DISL:MHPA:1,2010-01-04T03:00:00Z,30.6671,-87.9365,3.091,10.33,1111122 
DISL,ioos:station:DISL:MHPA:1,2010-01-04T03:30:00Z,30.6671,-87.9365,3.176,10.41,1111122 
DISL,ioos:station:DISL:MHPA:1,2010-01-04T04:00:00Z,30.6671,-87.9365,3.256,10.4,1111122 
DISL,ioos:station:DISL:MHPA:1,2010-01-04T04:30:00Z,30.6671,-87.9365,3.347,10.39,1111122 
DISL,ioos:station:DISL:MHPA:1,2010-01-04T05:00:00Z,30.6671,-87.9365,3.494,10.36,1111122 
DISL,ioos:station:DISL:MHPA:1,2010-01-04T05:30:00Z,30.6671,-87.9365,3.611,10.29,1111122 
DISL,ioos:station:DISL:MHPA:1,2010-01-04T06:00:00Z,30.6671,-87.9365,3.629,10.15,1111122 
DISL,ioos:station:DISL:MHPA:1,2010-01-04T06:30:00Z,30.6671,-87.9365,3.632,10.07,1111122 
DISL,ioos:station:DISL:MHPA:1,2010-01-04T07:00:00Z,30.6671,-87.9365,3.651,10.06,1111122 
DISL,ioos:station:DISL:MHPA:1,2010-01-04T07:30:00Z,30.6671,-87.9365,3.623,9.93,1111122 
DISL,ioos:station:DISL:MHPA:1,2010-01-04T08:00:00Z,30.6671,-87.9365,3.592,9.79,1111122 
DISL,ioos:station:DISL:MHPA:1,2010-01-04T08:30:00Z,30.6671,-87.9365,3.562,9.84,1111122 
DISL,ioos:station:DISL:MHPA:1,2010-01-04T09:00:00Z,30.6671,-87.9365,3.516,9.88,1111122 
DISL,ioos:station:DISL:MHPA:1,2010-01-04T09:30:00Z,30.6671,-87.9365,3.471,9.75,1111122 
DISL,ioos:station:DISL:MHPA:1,2010-01-04T10:00:00Z,30.6671,-87.9365,3.405,9.71,1111122 
DISL,ioos:station:DISL:MHPA:1,2010-01-04T10:30:00Z,30.6671,-87.9365,3.327,9.9,1111122 
DISL,ioos:station:DISL:MHPA:1,2010-01-04T11:00:00Z,30.6671,-87.9365,3.279,10.36,1111122 
DISL,ioos:station:DISL:MHPA:1,2010-01-04T11:30:00Z,30.6671,-87.9365,3.227,10.35,1111122 
DISL,ioos:station:DISL:MHPA:1,2010-01-04T12:00:00Z,30.6671,-87.9365,3.146,10.25,1111122 
DISL,ioos:station:DISL:MHPA:1,2010-01-04T12:30:00Z,30.6671,-87.9365,3.077,10.4,1111122 
DISL,ioos:station:DISL:MHPA:1,2010-01-04T13:00:00Z,30.6671,-87.9365,3.006,10.47,1111122 
DISL,ioos:station:DISL:MHPA:1,2010-01-04T13:30:00Z,30.6671,-87.9365,2.947,10.38,1111122 
DISL,ioos:station:DISL:MHPA:1,2010-01-04T14:00:00Z,30.6671,-87.9365,2.888,10.31,1111122 
DISL,ioos:station:DISL:MHPA:1,2010-01-04T14:30:00Z,30.6671,-87.9365,2.822,10.22,1111122 
DISL,ioos:station:DISL:MHPA:1,2010-01-04T15:00:00Z,30.6671,-87.9365,2.761,10.03,1111122 
DISL,ioos:station:DISL:MHPA:1,2010-01-04T15:30:00Z,30.6671,-87.9365,2.71,10.17,1111122 
DISL,ioos:station:DISL:MHPA:1,2010-01-04T16:00:00Z,30.6671,-87.9365,2.654,10.23,1111122 
DISL,ioos:station:DISL:MHPA:1,2010-01-04T16:30:00Z,30.6671,-87.9365,2.596,10.08,1111122 
DISL,ioos:station:DISL:MHPA:1,2010-01-04T17:00:00Z,30.6671,-87.9365,2.551,10.34,1111122 
DISL,ioos:station:DISL:MHPA:1,2010-01-04T17:30:00Z,30.6671,-87.9365,2.531,10.55,1111122 
DISL,ioos:station:DISL:MHPA:1,2010-01-04T18:00:00Z,30.6671,-87.9365,2.526,10.59,1111122 
DISL,ioos:station:DISL:MHPA:1,2010-01-04T18:30:00Z,30.6671,-87.9365,2.514,10.62,1111122 
DISL,ioos:station:DISL:MHPA:1,2010-01-04T19:00:00Z,30.6671,-87.9365,2.499,10.65,1111122 
DISL,ioos:station:DISL:MHPA:1,2010-01-04T19:30:00Z,30.6671,-87.9365,2.488,10.61,1111122 
DISL,ioos:station:DISL:MHPA:1,2010-01-04T20:00:00Z,30.6671,-87.9365,2.492,10.68,1111122 
DISL,ioos:station:DISL:MHPA:1,2010-01-04T20:30:00Z,30.6671,-87.9365,2.496,10.65,1111122 
DISL,ioos:station:DISL:MHPA:1,2010-01-04T21:00:00Z,30.6671,-87.9365,2.525,10.69,1111122 
DISL,ioos:station:DISL:MHPA:1,2010-01-04T21:30:00Z,30.6671,-87.9365,2.584,10.73,1111122 
DISL,ioos:station:DISL:MHPA:1,2010-01-04T22:00:00Z,30.6671,-87.9365,2.674,10.77,1111122 
DISL,ioos:station:DISL:MHPA:1,2010-01-04T22:30:00Z,30.6671,-87.9365,2.753,10.97,1111122 
DISL,ioos:station:DISL:MHPA:1,2010-01-04T23:00:00Z,30.6671,-87.9365,2.793,10.96,1111122 
DISL,ioos:station:DISL:MHPA:1,2010-01-04T23:30:00Z,30.6671,-87.9365,2.783,10.94,1111122 
DISL,ioos:station:DISL:MHPA:1,2010-01-05T00:00:00Z,30.6671,-87.9365,2.764,10.97,1111122 
DISL,ioos:station:DISL:MHPA:1,2010-01-05T00:30:00Z,30.6671,-87.9365,2.769,10.98,1111122 
DISL,ioos:station:DISL:MHPA:1,2010-01-05T01:00:00Z,30.6671,-87.9365,2.738,10.94,1111122 
DISL,ioos:station:DISL:MHPA:1,2010-01-05T01:30:00Z,30.6671,-87.9365,2.689,10.92,1111122 
DISL,ioos:station:DISL:MHPA:1,2010-01-05T02:00:00Z,30.6671,-87.9365,2.622,10.96,1111122 
DISL,ioos:station:DISL:MHPA:1,2010-01-05T02:30:00Z,30.6671,-87.9365,2.569,10.96,1111122 
DISL,ioos:station:DISL:MHPA:1,2010-01-05T03:00:00Z,30.6671,-87.9365,2.519,10.99,1111122 
DISL,ioos:station:DISL:MHPA:1,2010-01-05T03:30:00Z,30.6671,-87.9365,2.476,11.14,1111122 
DISL,ioos:station:DISL:MHPA:1,2010-01-05T04:00:00Z,30.6671,-87.9365,2.452,11.15,1111122 
DISL,ioos:station:DISL:MHPA:1,2010-01-05T04:30:00Z,30.6671,-87.9365,2.449,11.17,1111122 
DISL,ioos:station:DISL:MHPA:1,2010-01-05T05:00:00Z,30.6671,-87.9365,2.438,11.17,1111122 
DISL,ioos:station:DISL:MHPA:1,2010-01-05T05:30:00Z,30.6671,-87.9365,2.435,11.15,1111122 
DISL,ioos:station:DISL:MHPA:1,2010-01-05T06:00:00Z,30.6671,-87.9365,2.464,11.17,1111122 
DISL,ioos:station:DISL:MHPA:1,2010-01-05T06:30:00Z,30.6671,-87.9365,2.567,11.2,1111122 
DISL,ioos:station:DISL:MHPA:1,2010-01-05T07:00:00Z,30.6671,-87.9365,2.688,11.21,1111122 
DISL,ioos:station:DISL:MHPA:1,2010-01-05T07:30:00Z,30.6671,-87.9365,2.694,11.21,1111122 
DISL,ioos:station:DISL:MHPA:1,2010-01-05T08:00:00Z,30.6671,-87.9365,2.646,11.22,1111122 
DISL,ioos:station:DISL:MHPA:1,2010-01-05T08:30:00Z,30.6671,-87.9365,2.609,11.21,1111122 
DISL,ioos:station:DISL:MHPA:1,2010-01-05T09:00:00Z,30.6671,-87.9365,2.581,11.24,1111122 
DISL,ioos:station:DISL:MHPA:1,2010-01-05T09:30:00Z,30.6671,-87.9365,2.559,11.2,1111122 
DISL,ioos:station:DISL:MHPA:1,2010-01-05T10:00:00Z,30.6671,-87.9365,2.532,11.21,1111122 
DISL,ioos:station:DISL:MHPA:1,2010-01-05T10:30:00Z,30.6671,-87.9365,2.506,11.23,1111122 
DISL,ioos:station:DISL:MHPA:1,2010-01-05T11:00:00Z,30.6671,-87.9365,2.504,11.27,1111122 
DISL,ioos:station:DISL:MHPA:1,2010-01-05T11:30:00Z,30.6671,-87.9365,2.534,11.31,1111122 
DISL,ioos:station:DISL:MHPA:1,2010-01-05T12:00:00Z,30.6671,-87.9365,2.516,11.32,1111122 
DISL,ioos:station:DISL:MHPA:1,2010-01-05T12:30:00Z,30.6671,-87.9365,2.487,11.25,1111122 
DISL,ioos:station:DISL:MHPA:1,2010-01-05T13:00:00Z,30.6671,-87.9365,2.469,11.27,1111122 
DISL,ioos:station:DISL:MHPA:1,2010-01-05T13:30:00Z,30.6671,-87.9365,2.446,11.36,1111122 
DISL,ioos:station:DISL:MHPA:1,2010-01-05T14:00:00Z,30.6671,-87.9365,2.417,11.33,1111122 
DISL,ioos:station:DISL:MHPA:1,2010-01-05T14:30:00Z,30.6671,-87.9365,2.388,11.35,1111122 
DISL,ioos:station:DISL:MHPA:1,2010-01-05T15:00:00Z,30.6671,-87.9365,2.349,11.37,1111122 
DISL,ioos:station:DISL:MHPA:1,2010-01-05T15:30:00Z,30.6671,-87.9365,2.323,11.4,1111122 
DISL,ioos:station:DISL:MHPA:1,2010-01-05T16:00:00Z,30.6671,-87.9365,2.311,11.41,1111122 
DISL,ioos:station:DISL:MHPA:1,2010-01-05T16:30:00Z,30.6671,-87.9365,2.3,11.43,1111122 
DISL,ioos:station:DISL:MHPA:1,2010-01-05T17:00:00Z,30.6671,-87.9365,2.277,11.44,1111122 
DISL,ioos:station:DISL:MHPA:1,2010-01-05T17:30:00Z,30.6671,-87.9365,2.259,11.43,1111122 
DISL,ioos:station:DISL:MHPA:1,2010-01-05T18:00:00Z,30.6671,-87.9365,2.307,11.82,1111122 
DISL,ioos:station:DISL:MHPA:1,2010-01-05T18:30:00Z,30.6671,-87.9365,2.397,11.73,1111122 
DISL,ioos:station:DISL:MHPA:1,2010-01-05T19:00:00Z,30.6671,-87.9365,2.442,11.73,1111122 
DISL,ioos:station:DISL:MHPA:1,2010-01-05T19:30:00Z,30.6671,-87.9365,2.454,11.71,1111122 
DISL,ioos:station:DISL:MHPA:1,2010-01-05T20:00:00Z,30.6671,-87.9365,2.46,11.68,1111122 
DISL,ioos:station:DISL:MHPA:1,2010-01-05T20:30:00Z,30.6671,-87.9365,2.494,11.68,1111122 
DISL,ioos:station:DISL:MHPA:1,2010-01-05T21:00:00Z,30.6671,-87.9365,2.588,11.68,1111122 
DISL,ioos:station:DISL:MHPA:1,2010-01-05T21:30:00Z,30.6671,-87.9365,2.692,11.71,1111122 
DISL,ioos:station:DISL:MHPA:1,2010-01-05T22:00:00Z,30.6671,-87.9365,2.792,11.7,1111122 
DISL,ioos:station:DISL:MHPA:1,2010-01-05T22:30:00Z,30.6671,-87.9365,2.882,11.68,1111122 
DISL,ioos:station:DISL:MHPA:1,2010-01-05T23:00:00Z,30.6671,-87.9365,2.941,11.69,1111122 
DISL,ioos:station:DISL:MHPA:1,2010-01-05T23:30:00Z,30.6671,-87.9365,2.976,11.58,1111122 
DISL,ioos:station:DISL:MHPA:1,2010-01-06T00:00:00Z,30.6671,-87.9365,3.003,11.57,1111122 
DISL,ioos:station:DISL:MHPA:1,2010-01-06T00:30:00Z,30.6671,-87.9365,2.981,11.43,1111122 
DISL,ioos:station:DISL:MHPA:1,2010-01-06T01:00:00Z,30.6671,-87.9365,2.954,11.47,1111122 
DISL,ioos:station:DISL:MHPA:1,2010-01-06T01:30:00Z,30.6671,-87.9365,2.941,11.63,1111122 
DISL,ioos:station:DISL:MHPA:1,2010-01-06T02:00:00Z,30.6671,-87.9365,2.91,11.33,1111122 
DISL,ioos:station:DISL:MHPA:1,2010-01-06T02:30:00Z,30.6671,-87.9365,2.848,11.44,1111122 
DISL,ioos:station:DISL:MHPA:1,2010-01-06T03:00:00Z,30.6671,-87.9365,2.787,11.41,1111122 
DISL,ioos:station:DISL:MHPA:1,2010-01-06T03:30:00Z,30.6671,-87.9365,2.74,11.45,1111122 
DISL,ioos:station:DISL:MHPA:1,2010-01-06T04:00:00Z,30.6671,-87.9365,2.707,11.45,1111122 
DISL,ioos:station:DISL:MHPA:1,2010-01-06T04:30:00Z,30.6671,-87.9365,2.687,11.39,1111122 
DISL,ioos:station:DISL:MHPA:1,2010-01-06T05:00:00Z,30.6671,-87.9365,2.655,11.28,1111122 
DISL,ioos:station:DISL:MHPA:1,2010-01-06T05:30:00Z,30.6671,-87.9365,2.618,11.31,1111122 
DISL,ioos:station:DISL:MHPA:1,2010-01-06T06:00:00Z,30.6671,-87.9365,2.578,11.34,1111122 
DISL,ioos:station:DISL:MHPA:1,2010-01-06T06:30:00Z,30.6671,-87.9365,2.548,11.32,1111122 
DISL,ioos:station:DISL:MHPA:1,2010-01-06T07:00:00Z,30.6671,-87.9365,2.526,11.32,1111122 
DISL,ioos:station:DISL:MHPA:1,2010-01-06T07:30:00Z,30.6671,-87.9365,2.512,11.3,1111122 
DISL,ioos:station:DISL:MHPA:1,2010-01-06T08:00:00Z,30.6671,-87.9365,2.489,11.34,1111122 
DISL,ioos:station:DISL:MHPA:1,2010-01-06T08:30:00Z,30.6671,-87.9365,2.442,11.31,1111122 
DISL,ioos:station:DISL:MHPA:1,2010-01-06T09:00:00Z,30.6671,-87.9365,2.386,11.32,1111122 
DISL,ioos:station:DISL:MHPA:1,2010-01-06T09:30:00Z,30.6671,-87.9365,2.345,11.33,1111122 
DISL,ioos:station:DISL:MHPA:1,2010-01-06T10:00:00Z,30.6671,-87.9365,2.32,11.36,1111122 
DISL,ioos:station:DISL:MHPA:1,2010-01-06T10:30:00Z,30.6671,-87.9365,2.317,11.34,1111122 
DISL,ioos:station:DISL:MHPA:1,2010-01-06T11:00:00Z,30.6671,-87.9365,2.323,11.32,1111122 
DISL,ioos:station:DISL:MHPA:1,2010-01-06T11:30:00Z,30.6671,-87.9365,2.34,11.32,1111122 
DISL,ioos:station:DISL:MHPA:1,2010-01-06T12:00:00Z,30.6671,-87.9365,2.366,11.3,1111122 
DISL,ioos:station:DISL:MHPA:1,2010-01-06T12:30:00Z,30.6671,-87.9365,2.392,11.32,1111122 
DISL,ioos:station:DISL:MHPA:1,2010-01-06T13:00:00Z,30.6671,-87.9365,2.404,11.31,1111122 
DISL,ioos:station:DISL:MHPA:1,2010-01-06T13:30:00Z,30.6671,-87.9365,2.397,11.3,1111122 
DISL,ioos:station:DISL:MHPA:1,2010-01-06T14:00:00Z,30.6671,-87.9365,2.374,11.35,1111122 
DISL,ioos:station:DISL:MHPA:1,2010-01-06T14:30:00Z,30.6671,-87.9365,2.358,11.38,1111122 
DISL,ioos:station:DISL:MHPA:1,2010-01-06T15:00:00Z,30.6671,-87.9365,2.335,11.4,1111122 
DISL,ioos:station:DISL:MHPA:1,2010-01-06T15:30:00Z,30.6671,-87.9365,2.31,11.41,1111122 
DISL,ioos:station:DISL:MHPA:1,2010-01-06T16:00:00Z,30.6671,-87.9365,2.325,11.42,1111122 
DISL,ioos:station:DISL:MHPA:1,2010-01-06T16:30:00Z,30.6671,-87.9365,2.379,11.4,1111122 
DISL,ioos:station:DISL:MHPA:1,2010-01-06T17:00:00Z,30.6671,-87.9365,2.466,11.41,1111122 
DISL,ioos:station:DISL:MHPA:1,2010-01-06T17:30:00Z,30.6671,-87.9365,2.571,11.41,1111122 
DISL,ioos:station:DISL:MHPA:1,2010-01-06T18:00:00Z,30.6671,-87.9365,2.681,11.42,1111122 
DISL,ioos:station:DISL:MHPA:1,2010-01-06T18:30:00Z,30.6671,-87.9365,2.77,11.41,1111122 
DISL,ioos:station:DISL:MHPA:1,2010-01-06T19:00:00Z,30.6671,-87.9365,2.794,11.42,1111122 
DISL,ioos:station:DISL:MHPA:1,2010-01-06T19:30:00Z,30.6671,-87.9365,2.855,11.49,1111122 
DISL,ioos:station:DISL:MHPA:1,2010-01-06T20:00:00Z,30.6671,-87.9365,2.973,11.53,1111122 
DISL,ioos:station:DISL:MHPA:1,2010-01-06T20:30:00Z,30.6671,-87.9365,3.007,11.52,1111122 